Location: Anna District 4 Election Precinct
(37.4833°N, 89.2195°W)
Time: 13:57:10
(UTC+00:00)

Cosmos 1656 - Pass Details

Date: 29 October 2020
Orbit: 797 x 851 km, 71.1° (Epoch: 03 December)

Event Time Altitude Azimuth Distance (km) Brightness Sun altitude
Rises 23:16:01 0° 191° (S) 3,322 7.2 -3.6°
Reaches altitude 10° 23:18:26 10° 188° (S) 2,402 6.4 -4.1°
Maximum altitude 23:23:52 62° 108° (ESE) 925 3.7 -5.1°
Drops below altitude 10° 23:29:24 10° 29° (NNE) 2,453 5.7 -6.2°
Sets 23:31:53 0° 26° (NNE) 3,399 6.5 -6.7°
